Wind_Speed
16 33 31 36 35 30 32 34 36 36 33 32 31 29 27 26 25 20 18 15 14 13
4 39 34 32 32 31 31 33 39 36 33 30 29 31 30 29 25 24 17 16 14 11
15 27 34 34 34 32 33 35 38 34 33 33 34 31 30 29 27 22 18 17 16 18
15 15 16 32 34 39 38 35 35 38 37 34 32 30 29 26 23 20 20 20 22 20
17 17 14 7 20 34 38 39 40 39 36 34 32 30 27 24 23 25 21 21 21 20
12 12 11 12 8 20 27 38 41 39 34 30 28 25 23 22 23 23 21 23 23 22
12 13 14 15 12 11 15 34 32 31 26 25 22 21 18 20 23 25 24 20 18 16
13 10 12 14 14 13 17 23 21 20 21 23 23 18 22 23 27 22 20 19 18 16
10 10 14 15 14 17 16 17 19 21 22 26 21 21 22 25 22 20 23 21 16 13
14 14 14 15 17 15 15 15 18 18 19 19 19 20 20 20 21 22 22 20 19 17
10 11 11 12 13 13 11 11 11 12 13 13 14 17 19 21 21 21 20 19 19 20
7 7 6 7 8 8 10 10 11 12 12 14 16 18 18 19 20 19 18 19 17 16
6 6 6 7 8 9 10 11 10 9 9 11 15 18 19 17 20 22 20 17 16 15
4 7 7 8 9 10 10 11 12 13 12 11 11 16 19 17 15 18 19 18 18 17
Wind_Direction
293 174 171 171 172 171 172 175 178 180 179 175 180 182 179 175 176 179 167 171 177 179
358 167 167 169 169 172 171 172 178 179 177 178 179 179 177 175 175 167 167 173 177 196
117 152 168 173 174 174 172 173 174 177 180 181 178 176 178 173 169 174 178 180 183 171
125 117 164 177 173 178 178 178 179 180 178 177 175 174 173 173 177 183 183 184 183 186
146 149 155 163 159 168 172 174 179 173 171 171 170 174 179 181 185 182 185 191 197 187
167 158 169 155 125 159 177 169 169 168 169 169 175 177 179 182 184 196 204 201 194 193
154 146 145 148 153 157 144 147 159 163 169 177 177 180 185 192 206 204 193 194 192 192
146 142 142 148 140 162 157 156 163 169 181 189 190 192 189 191 187 180 175 181 185 188
139 145 155 168 170 172 167 173 184 193 197 189 190 190 200 196 187 180 182 182 185 186
117 117 121 147 162 158 155 165 170 174 180 178 177 182 192 192 195 193 193 193 194 189
104 113 125 132 137 148 156 165 172 176 183 184 184 195 198 201 199 194 192 194 188 186
74 91 102 118 132 151 169 172 180 186 186 188 187 190 191 190 184 183 177 178 184 189
111 136 153 165 166 165 170 167 172 173 188 198 196 190 184 184 179 174 176 182 187 186
143 166 174 169 171 175 176 179 180 181 186 193 200 191 183 183 192 192 187 188 192 195
Height
730 731 738 743 748 756 762 768 776 783 788 793 799 805 810 814 818 822 826 830 833 836
720 724 734 741 748 755 760 765 773 779 786 793 797 801 807 810 814 819 823 826 830 832
715 720 730 739 746 752 758 764 770 778 784 789 794 798 804 807 812 816 820 823 825 827
716 718 728 734 741 747 755 762 769 773 779 784 789 795 801 803 808 812 815 819 821 823
726 729 729 732 734 743 750 757 763 770 773 781 785 792 796 800 805 807 812 815 819 821
728 730 734 737 739 741 750 753 757 765 772 778 784 789 793 797 802 805 807 812 814 817
732 730 735 733 741 747 751 745 756 762 771 777 783 788 790 794 799 801 804 809 813 817
733 735 735 738 745 751 754 757 760 765 771 778 780 782 789 794 796 798 802 808 812 815
738 740 742 746 752 758 758 761 762 767 770 773 776 781 785 791 792 795 802 806 808 810
743 746 747 751 754 757 760 763 765 768 770 773 778 780 785 787 792 796 799 801 805 810
749 751 753 755 756 760 763 766 767 768 771 776 778 781 782 788 791 795 797 801 805 811
756 758 760 762 763 763 765 765 769 771 773 776 778 781 783 788 790 796 797 802 807 810
760 762 764 765 767 767 766 768 771 773 774 777 778 781 784 787 788 791 794 800 804 805
760 763 763 764 765 767 767 769 770 770 774 775 777 780 782 785 790 793 795 797 802 804